Location: Dennis Manor
(64.8292°N, 147.5397°W)
Time: 17:40:22
(UTC+00:00)

Envisat - Pass Details

Date: 04 November 2020
Orbit: 764 x 766 km, 98.1° (Epoch: 25 November)

Event Time Altitude Azimuth Distance (km) Brightness Sun altitude
Rises 03:21:42 0° 187° (S) 3,229 6.5 -12.7°
Reaches altitude 10° 03:24:09 10° 196° (SSW) 2,307 5.8 -13.0°
Maximum altitude 03:28:54 39° 265° (W) 1,150 4.6 -13.5°
Drops below altitude 10° 03:33:41 10° 334° (NNW) 2,319 5.7 -14.0°
Sets 03:36:09 0° 342° (NNW) 3,249 6.4 -14.2°
